Regional Weather Roundup
Issued by NWS Midland/Odessa, TX

Home | Current Version | Previous Version | Text Only | Print | Product List | Glossary On
Versions: 1 2 3 4 5 6 7 8 9 10 11 12 13 14 15 16 17 18 19 20 21 22 23 24 25 26 27 28 29 30 31 32 33 34 35 36 37 38 39 40 41 42 43 44 45 46 47 48 49 50
000
ASUS44 KMAF 062210
RWRMAF
MIDLAND AREA WEATHER ROUNDUP
NATIONAL WEATHER SERVICE MIDLAND TX
400 PM CST TUE DEC 06 2016

...IN SOUTHWEST TEXAS AND SOUTHEAST NEW MEXICO...

CITY           SKY/WX    TMP DP  RH WIND       PRES   REMARKS
ALPINE         FAIR      53  31  43 E9        30.04F
ANDREWS        FAIR      43  27  53 E6        30.02F WCI  40
ARTESIA        PTSUNNY   43  18  36 S12       29.96F WCI  37
BIG SPRING     CLOUDY    43  30  60 NE5       30.06F WCI  40
CARLSBAD       MOSUNNY   47  22  37 SE6       29.97F
DRYDEN           N/A     60  34  37 N13       29.96S
FORT STOCKTON  FAIR      50  29  44 NW5       30.00F
GUAD PASS      NOT AVBL
HOBBS          NOT AVBL
MARFA          FAIR      63  28  26 SW7       29.98F
MIDLAND AIRPK  FAIR      45  29  54 NE6       30.03F
MIDLAND INTL   FAIR      47  28  47 NE10      30.02F
ODESSA         FAIR      46  29  51 NE6       30.02F
PECOS          FAIR      50  26  38 CALM      30.00F
PRESIDIO       FAIR      69  33  26 CALM      29.92F
SEMINOLE       FAIR      44  26  50 E6        30.01F
SNYDER         CLOUDY    43  26  50 NE7       30.05F WCI  39
WINK           FAIR      50  26  39 NE5       29.99F
$$
...OTHER STATIONS IN TEXAS...

CITY           SKY/WX    TMP DP  RH WIND       PRES   REMARKS
ABILENE        CLOUDY    45  32  60 N12       30.06S WCI  39
AMARILLO       FAIR      37   6  27 E8        30.01F WCI  31
AUSTIN         CLOUDY    56  47  71 N10       29.99R
BROWNSVILLE    FAIR      79  63  57 S9        29.90R
CORPUS CHRISTI FAIR      77  53  43 CALM      29.89S
DALLAS FTW     CLOUDY    50  40  68 N10       30.02R
DEL RIO        FAIR      65  41  41 NW9G20    29.95R
EL PASO        PTSUNNY   62  29  28 SW8       29.91S
HOUSTON INT    FAIR      69  51  52 NW6       29.92R
LUBBOCK        PTSUNNY   42  17  36 SE15      30.00F WCI  34
SAN ANGELO     CLOUDY    47  37  68 N10       30.05F
SAN ANTONIO    FAIR      57  44  62 N15G23    29.99R
WACO           CLOUDY    53  45  74 N10       30.01R
WICHITA FALLS  NOT AVBL
$$
...OTHER LOCATIONS IN NEW MEXICO...

CITY           SKY/WX    TMP DP  RH WIND       PRES   REMARKS
ALAMAGORDO     NOT AVBL
ALBUQUERQUE    CLOUDY    47  17  30 N9        29.80S
CANNON AFB     NOT AVBL
CLOVIS         SUNNY     37   9  30 SE13      29.96F WCI  29
HOLLOMAN AFB   NOT AVBL
ROSWELL        MOSUNNY   44  13  28 SE8       29.96F WCI  39
RUIDOSO        CLOUDY    41  23  48 SW24G33   29.91S WCI  31
SANTA FE       CLOUDY    35  11  36 SE16G25   29.83F WCI  25
TRUTH OR CONSE MOSUNNY   59  19  21 W6        29.83F
TUCUMCARI      SUNNY     41   6  23 S13       29.95F WCI  34
$$



USA.gov is the U.S. government's official web portal to all federal, state and local government web resources and services.